When you browse on this site, cookies collect data to enhance your experience and personalize the content and advertising you see.
Visit our Privacy Policy to learn more. By continuing to use the site, you agree to this use of cookies and data.
  • In Österreich
  • Länderverzeichnis
  • Für 7 Tage
  • Wassertemperatur
  • Satellitenkarten
  • Wetterkarte
  • News
  • Widgets
  • user-avatar
    Anmelden

    Stündliche Wetter Kavasaki

    Heute, 16 Juli, Dienstag

    Zeit Temperatur Niederschläge Wind Luftdruck Luftfeuchtigkeit
    00:00 +26°C° 0.2 mm 1 m/S 751 mmHg 90%
    01:00 +25°C° 0.7 mm 1 m/S 751 mmHg 91%
    02:00 +25°C° 0.7 mm 1 m/S 751 mmHg 91%
    03:00 +25°C° 0 mm 1 m/S 752 mmHg 91%
    04:00 +25°C° 0.9 mm 1 m/S 752 mmHg 91%
    05:00 +25°C° 0.9 mm 1 m/S 752 mmHg 90%
    06:00 +25°C° 0.9 mm 1 m/S 753 mmHg 90%
    07:00 +26°C° 0.2 mm 1 m/S 753 mmHg 87%
    08:00 +26°C° 0.2 mm 1 m/S 753 mmHg 84%
    09:00 +27°C° 0 mm 1 m/S 753 mmHg 81%
    10:00 +28°C° 0.4 mm 2 m/S 753 mmHg 77%
    11:00 +29°C° 0.4 mm 2 m/S 753 mmHg 73%
    12:00 +30°C° 0.4 mm 2 m/S 753 mmHg 69%
    13:00 +30°C° 1.1 mm 2 m/S 753 mmHg 69%
    14:00 +30°C° 1.1 mm 3 m/S 752 mmHg 69%
    15:00 +30°C° 1.1 mm 3 m/S 752 mmHg 69%
    16:00 +29°C° 1 mm 3 m/S 752 mmHg 72%
    17:00 +28°C° 1 mm 3 m/S 753 mmHg 75%
    18:00 +27°C° 1 mm 3 m/S 753 mmHg 78%
    19:00 +27°C° 0.5 mm 2 m/S 753 mmHg 80%
    20:00 +27°C° 0.5 mm 2 m/S 753 mmHg 81%
    21:00 +26°C° 0.5 mm 1 m/S 754 mmHg 83%
    22:00 +26°C° 0.2 mm 1 m/S 754 mmHg 83%
    23:00 +26°C° 0.2 mm 1 m/S 754 mmHg 84%

    Morgen, 17 Juli, Mittwoch

    Zeit Temperatur Niederschläge Wind Luftdruck Luftfeuchtigkeit
    00:00 +26°C° 0.2 mm 1 m/S 754 mmHg 84%
    01:00 +26°C° 0.2 mm 1 m/S 754 mmHg 85%
    02:00 +25°C° 0.2 mm 1 m/S 754 mmHg 86%
    03:00 +23°C° 0.2 mm 0 m/S 753 mmHg 86%
    04:00 +23°C° 0.1 mm 0 m/S 754 mmHg 86%
    05:00 +23°C° 0.1 mm 0 m/S 754 mmHg 85%
    06:00 +24°C° 0.1 mm 0 m/S 754 mmHg 85%
    07:00 +25°C° 0 mm 0 m/S 754 mmHg 79%
    08:00 +26°C° 0 mm 0 m/S 754 mmHg 74%
    09:00 +28°C° 0 mm 0 m/S 754 mmHg 68%
    10:00 +31°C° 0 mm 1 m/S 754 mmHg 63%
    11:00 +32°C° 0 mm 1 m/S 754 mmHg 57%
    12:00 +34°C° 0 mm 1 m/S 754 mmHg 51%
    13:00 +35°C° 0.1 mm 2 m/S 753 mmHg 52%
    14:00 +35°C° 0.1 mm 2 m/S 753 mmHg 52%
    15:00 +35°C° 0.1 mm 3 m/S 753 mmHg 53%
    16:00 +34°C° 0.4 mm 3 m/S 753 mmHg 57%
    17:00 +32°C° 0.4 mm 2 m/S 753 mmHg 62%
    18:00 +31°C° 0.4 mm 2 m/S 753 mmHg 67%
    19:00 +30°C° 0.2 mm 2 m/S 754 mmHg 70%
    20:00 +29°C° 0.2 mm 2 m/S 754 mmHg 73%
    21:00 +28°C° 0.2 mm 1 m/S 754 mmHg 76%
    22:00 +28°C° 0.2 mm 1 m/S 754 mmHg 78%
    23:00 +27°C° 0.2 mm 1 m/S 754 mmHg 79%

    übermorgen, 18 Juli, Donnerstag

    Zeit Temperatur Niederschläge Wind Luftdruck Luftfeuchtigkeit
    00:00 +27°C° 0.2 mm 1 m/S 754 mmHg 81%
    01:00 +27°C° 0 mm 1 m/S 754 mmHg 82%
    02:00 +26°C° 0 mm 1 m/S 754 mmHg 83%
    03:00 +26°C° 0 mm 1 m/S 754 mmHg 84%
    04:00 +26°C° 0 mm 1 m/S 754 mmHg 83%
    05:00 +26°C° 0 mm 1 m/S 754 mmHg 82%
    06:00 +27°C° 0 mm 1 m/S 754 mmHg 81%
    07:00 +28°C° 0.1 mm 1 m/S 754 mmHg 77%
    08:00 +29°C° 0.1 mm 1 m/S 754 mmHg 73%
    09:00 +30°C° 0.1 mm 1 m/S 754 mmHg 69%
    10:00 +31°C° 0.3 mm 1 m/S 754 mmHg 64%
    11:00 +33°C° 0.3 mm 1 m/S 754 mmHg 59%
    12:00 +34°C° 0.3 mm 1 m/S 754 mmHg 55%
    13:00 +35°C° 0.4 mm 2 m/S 753 mmHg 54%
    14:00 +35°C° 0.4 mm 3 m/S 753 mmHg 54%
    15:00 +35°C° 0.4 mm 4 m/S 752 mmHg 54%
    16:00 +34°C° 0.7 mm 4 m/S 753 mmHg 59%
    17:00 +33°C° 0.7 mm 4 m/S 753 mmHg 64%
    18:00 +32°C° 0.7 mm 4 m/S 753 mmHg 69%
    19:00 +30°C° 0.8 mm 4 m/S 753 mmHg 72%
    20:00 +29°C° 0.8 mm 3 m/S 754 mmHg 76%
    21:00 +29°C° 0.8 mm 3 m/S 754 mmHg 79%
    22:00 +28°C° 1.5 mm 3 m/S 754 mmHg 80%
    23:00 +28°C° 1.5 mm 2 m/S 754 mmHg 82%

    19 Juli, Freitag

    Zeit Temperatur Niederschläge Wind Luftdruck Luftfeuchtigkeit
    00:00 +28°C° 1.5 mm 2 m/S 754 mmHg 83%
    01:00 +27°C° 1 mm 2 m/S 753 mmHg 84%
    02:00 +27°C° 1 mm 2 m/S 753 mmHg 85%
    03:00 +27°C° 1 mm 2 m/S 753 mmHg 85%
    04:00 +27°C° 1.3 mm 2 m/S 753 mmHg 85%
    05:00 +27°C° 1.3 mm 2 m/S 753 mmHg 85%
    06:00 +27°C° 1.3 mm 2 m/S 753 mmHg 84%
    07:00 +28°C° 1.4 mm 2 m/S 753 mmHg 83%
    08:00 +28°C° 1.4 mm 2 m/S 753 mmHg 81%
    09:00 +29°C° 1.4 mm 2 m/S 754 mmHg 80%
    10:00 +29°C° 0.8 mm 2 m/S 753 mmHg 76%
    11:00 +30°C° 0.8 mm 2 m/S 753 mmHg 72%
    12:00 +31°C° 0.8 mm 2 m/S 753 mmHg 68%
    13:00 +33°C° 0.5 mm 3 m/S 753 mmHg 67%
    14:00 +33°C° 0.5 mm 3 m/S 752 mmHg 65%
    15:00 +33°C° 0.5 mm 3 m/S 752 mmHg 64%
    16:00 +33°C° 0.4 mm 3 m/S 752 mmHg 66%
    17:00 +31°C° 0.4 mm 3 m/S 752 mmHg 69%
    18:00 +30°C° 0.4 mm 3 m/S 753 mmHg 71%
    19:00 +30°C° 0.3 mm 3 m/S 753 mmHg 73%
    20:00 +29°C° 0.3 mm 3 m/S 753 mmHg 75%
    21:00 +28°C° 0.3 mm 3 m/S 753 mmHg 78%
    22:00 +28°C° 0.4 mm 3 m/S 753 mmHg 79%
    23:00 +28°C° 0.4 mm 3 m/S 753 mmHg 80%

    20 Juli, Samstag

    Zeit Temperatur Niederschläge Wind Luftdruck Luftfeuchtigkeit
    00:00 +28°C° 0.4 mm 3 m/S 753 mmHg 81%
    01:00 +27°C° 0.4 mm 3 m/S 753 mmHg 81%
    02:00 +27°C° 0.4 mm 3 m/S 753 mmHg 81%
    03:00 +27°C° 0.4 mm 3 m/S 752 mmHg 82%
    04:00 +27°C° 0.2 mm 3 m/S 752 mmHg 81%
    05:00 +27°C° 0.2 mm 3 m/S 752 mmHg 81%
    06:00 +27°C° 0.2 mm 4 m/S 753 mmHg 81%
    07:00 +28°C° 0.4 mm 4 m/S 752 mmHg 78%
    08:00 +28°C° 0.4 mm 4 m/S 752 mmHg 76%
    09:00 +29°C° 0.4 mm 5 m/S 752 mmHg 74%
    10:00 +30°C° 0.7 mm 5 m/S 752 mmHg 72%
    11:00 +30°C° 0.7 mm 6 m/S 752 mmHg 70%
    12:00 +32°C° 0.7 mm 6 m/S 751 mmHg 67%
    13:00 +32°C° 1 mm 6 m/S 751 mmHg 68%
    14:00 +30°C° 1 mm 6 m/S 751 mmHg 69%
    15:00 +30°C° 1 mm 6 m/S 751 mmHg 70%
    16:00 +30°C° 0.5 mm 6 m/S 751 mmHg 71%
    17:00 +29°C° 0.5 mm 6 m/S 751 mmHg 73%
    18:00 +29°C° 0.5 mm 5 m/S 751 mmHg 74%
    19:00 +29°C° 0.5 mm 5 m/S 751 mmHg 75%
    20:00 +28°C° 0.5 mm 5 m/S 752 mmHg 77%
    21:00 +28°C° 0.5 mm 5 m/S 752 mmHg 78%
    22:00 +28°C° 0.7 mm 5 m/S 752 mmHg 79%
    23:00 +27°C° 0.7 mm 5 m/S 752 mmHg 79%

    21 Juli, Sonntag

    Zeit Temperatur Niederschläge Wind Luftdruck Luftfeuchtigkeit
    00:00 +27°C° 0.7 mm 4 m/S 751 mmHg 80%
    01:00 +27°C° 0.5 mm 4 m/S 751 mmHg 80%
    02:00 +27°C° 0.5 mm 4 m/S 751 mmHg 80%
    03:00 +27°C° 0.5 mm 4 m/S 751 mmHg 81%
    04:00 +27°C° 0.2 mm 4 m/S 751 mmHg 80%
    05:00 +27°C° 0.2 mm 4 m/S 751 mmHg 79%
    06:00 +27°C° 0.2 mm 4 m/S 751 mmHg 79%
    07:00 +28°C° 0.3 mm 4 m/S 752 mmHg 77%
    08:00 +29°C° 0.3 mm 4 m/S 752 mmHg 75%
    09:00 +29°C° 0.3 mm 4 m/S 752 mmHg 74%
    10:00 +29°C° 0.6 mm 4 m/S 752 mmHg 75%
    11:00 +29°C° 0.6 mm 4 m/S 752 mmHg 76%
    12:00 +28°C° 0.6 mm 3 m/S 752 mmHg 78%
    13:00 +28°C° 1.4 mm 3 m/S 752 mmHg 80%
    14:00 +27°C° 1.4 mm 3 m/S 751 mmHg 82%
    15:00 +27°C° 1.4 mm 3 m/S 751 mmHg 85%
    16:00 +27°C° 1.1 mm 3 m/S 751 mmHg 85%
    17:00 +27°C° 1.1 mm 3 m/S 751 mmHg 85%
    18:00 +27°C° 1.1 mm 2 m/S 751 mmHg 85%
    19:00 +27°C° 0.1 mm 2 m/S 751 mmHg 85%
    20:00 +27°C° 0.1 mm 2 m/S 752 mmHg 84%
    21:00 +27°C° 0.1 mm 2 m/S 752 mmHg 83%
    22:00 +27°C° 0.1 mm 2 m/S 752 mmHg 84%
    23:00 +27°C° 0.1 mm 2 m/S 751 mmHg 84%
    Mehr zeigen